Time,TemperatureF,DewpointF,PressureIn,WindDirection,WindDirectionDegrees,WindSpeedMPH,WindSpeedGustMPH,Humidity,HourlyPrecipIn,Conditions,Clouds,dailyrainin,SoftwareType,DateUTC
2013-03-18 00:00:00,48.2,4.0,29.79,NW,311,0.0,15.0,16,0.00,,,0.00,Wunderground v.1.15,2013-03-18 06:00:00,
2013-03-18 00:10:00,49.4,3.6,29.80,NW,311,1.0,3.0,15,0.00,,,0.00,Wunderground v.1.15,2013-03-18 06:10:00,
2013-03-18 00:20:00,50.0,4.1,29.80,NW,310,1.0,1.0,15,0.00,,,0.00,Wunderground v.1.15,2013-03-18 06:20:00,
2013-03-18 00:30:00,49.9,4.0,29.81,NW,311,1.0,1.0,15,0.00,,,0.00,Wunderground v.1.15,2013-03-18 06:30:00,
2013-03-18 00:40:00,49.8,3.9,29.81,NW,311,1.0,1.0,15,0.00,,,0.00,Wunderground v.1.15,2013-03-18 06:40:00,
2013-03-18 00:50:00,49.8,3.9,29.81,NW,311,0.0,0.0,15,0.00,,,0.00,Wunderground v.1.15,2013-03-18 06:50:00,
2013-03-18 01:00:00,49.3,3.5,29.81,NW,311,0.0,0.0,15,0.00,,,0.00,Wunderground v.1.15,2013-03-18 07:00:00,
2013-03-18 01:10:00,48.2,5.3,29.81,NW,311,0.0,2.0,17,0.00,,,0.00,Wunderground v.1.15,2013-03-18 07:10:00,
2013-03-18 01:20:00,46.7,5.4,29.82,NW,311,0.0,2.0,18,0.00,,,0.00,Wunderground v.1.15,2013-03-18 07:20:00,
2013-03-18 01:30:00,47.4,4.7,29.83,West,262,1.0,3.0,17,0.00,,,0.00,Wunderground v.1.15,2013-03-18 07:30:00,
2013-03-18 01:40:00,48.2,5.3,29.84,WSW,251,1.0,1.0,17,0.00,,,0.00,Wunderground v.1.15,2013-03-18 07:40:00,
2013-03-18 01:50:00,48.7,9.4,29.84,SSW,207,2.0,5.0,20,0.00,,,0.00,Wunderground v.1.15,2013-03-18 07:50:00,
2013-03-18 02:00:00,50.6,7.3,29.85,SSW,213,3.0,3.0,17,0.00,,,0.00,Wunderground v.1.15,2013-03-18 08:00:00,
2013-03-18 02:10:00,50.5,7.2,29.85,SSW,213,1.0,1.0,17,0.00,,,0.00,Wunderground v.1.15,2013-03-18 08:10:00,
2013-03-18 02:20:00,49.9,6.7,29.85,SSW,213,0.0,2.0,17,0.00,,,0.00,Wunderground v.1.15,2013-03-18 08:20:00,
2013-03-18 02:30:00,49.0,7.3,29.86,SSW,213,0.0,2.0,18,0.00,,,0.00,Wunderground v.1.15,2013-03-18 08:30:00,
2013-03-18 02:40:00,47.4,7.1,29.86,SSW,213,0.0,2.0,19,0.00,,,0.00,Wunderground v.1.15,2013-03-18 08:40:00,
2013-03-18 02:50:00,46.7,8.8,29.86,SSW,213,0.0,2.0,21,0.00,,,0.00,Wunderground v.1.15,2013-03-18 08:50:00,
2013-03-18 03:00:00,46.3,8.4,29.86,SSW,213,0.0,2.0,21,0.00,,,0.00,Wunderground v.1.15,2013-03-18 09:00:00,
2013-03-18 03:10:00,44.8,12.8,29.86,SSW,213,0.0,2.0,27,0.00,,,0.00,Wunderground v.1.15,2013-03-18 09:10:00,
2013-03-18 03:20:00,43.1,10.5,29.86,SSW,213,0.0,2.0,26,0.00,,,0.00,Wunderground v.1.15,2013-03-18 09:20:00,
2013-03-18 03:30:00,42.7,11.8,29.86,SSW,212,0.0,2.0,28,0.00,,,0.00,Wunderground v.1.15,2013-03-18 09:30:00,
2013-03-18 03:40:00,42.7,11.8,29.86,SSW,213,0.0,2.0,28,0.00,,,0.00,Wunderground v.1.15,2013-03-18 09:40:00,
2013-03-18 03:50:00,43.2,10.6,29.87,SSW,213,0.0,2.0,26,0.00,,,0.00,Wunderground v.1.15,2013-03-18 09:50:00,
2013-03-18 04:00:00,42.8,11.9,29.87,SSW,212,0.0,2.0,28,0.00,,,0.00,Wunderground v.1.15,2013-03-18 10:00:00,
2013-03-18 04:10:00,41.9,10.3,29.87,SSW,213,0.0,2.0,27,0.00,,,0.00,Wunderground v.1.15,2013-03-18 10:10:00,
2013-03-18 04:20:00,41.2,12.1,29.87,SSW,213,0.0,2.0,30,0.00,,,0.00,Wunderground v.1.15,2013-03-18 10:20:00,
2013-03-18 04:30:00,40.5,12.2,29.86,SSW,213,0.0,2.0,31,0.00,,,0.00,Wunderground v.1.15,2013-03-18 10:30:00,
2013-03-18 04:40:00,39.8,11.6,29.87,SSW,213,0.0,2.0,31,0.00,,,0.00,Wunderground v.1.15,2013-03-18 10:40:00,
2013-03-18 04:50:00,39.4,11.9,29.86,SSW,213,0.0,2.0,32,0.00,,,0.00,Wunderground v.1.15,2013-03-18 10:50:00,
2013-03-18 05:00:00,39.1,11.7,29.86,SSW,213,0.0,2.0,32,0.00,,,0.00,Wunderground v.1.15,2013-03-18 11:00:00,
2013-03-18 05:10:00,40.1,11.8,29.87,SSW,212,1.0,2.0,31,0.00,,,0.00,Wunderground v.1.15,2013-03-18 11:10:00,
2013-03-18 05:20:00,41.4,11.5,29.87,SSW,213,0.0,2.0,29,0.00,,,0.00,Wunderground v.1.15,2013-03-18 11:20:00,
2013-03-18 05:30:00,41.0,11.9,29.88,SSW,212,0.0,2.0,30,0.00,,,0.00,Wunderground v.1.15,2013-03-18 11:30:00,
2013-03-18 05:40:00,40.2,11.9,29.88,SSW,212,0.0,2.0,31,0.00,,,0.00,Wunderground v.1.15,2013-03-18 11:40:00,
2013-03-18 05:50:00,39.6,11.4,29.87,SSW,212,0.0,2.0,31,0.00,,,0.00,Wunderground v.1.15,2013-03-18 11:50:00,
2013-03-18 06:00:00,39.0,11.6,29.87,SSW,212,0.0,2.0,32,0.00,,,0.00,Wunderground v.1.15,2013-03-18 12:00:00,
2013-03-18 06:10:00,38.7,12.0,29.87,SSW,212,0.0,2.0,33,0.00,,,0.00,Wunderground v.1.15,2013-03-18 12:10:00,
2013-03-18 06:20:00,38.7,12.0,29.88,SSW,212,0.0,2.0,33,0.00,,,0.00,Wunderground v.1.15,2013-03-18 12:20:00,
2013-03-18 06:30:00,38.9,12.2,29.89,SSW,212,0.0,2.0,33,0.00,,,0.00,Wunderground v.1.15,2013-03-18 12:30:00,
2013-03-18 06:40:00,40.3,11.3,29.90,SSW,200,2.0,2.0,30,0.00,,,0.00,Wunderground v.1.15,2013-03-18 12:40:00,
2013-03-18 06:50:00,41.8,11.0,29.90,SSW,200,1.0,1.0,28,0.00,,,0.00,Wunderground v.1.15,2013-03-18 12:50:00,
2013-03-18 07:00:00,41.5,11.6,29.90,SSW,200,0.0,2.0,29,0.00,,,0.00,Wunderground v.1.15,2013-03-18 13:00:00,
2013-03-18 07:10:00,40.5,11.4,29.91,SSW,200,0.0,2.0,30,0.00,,,0.00,Wunderground v.1.15,2013-03-18 13:10:00,
2013-03-18 07:20:00,39.8,12.3,29.91,SSW,200,0.0,2.0,32,0.00,,,0.00,Wunderground v.1.15,2013-03-18 13:20:00,
2013-03-18 07:30:00,39.5,12.0,29.92,SSW,200,0.0,2.0,32,0.00,,,0.00,Wunderground v.1.15,2013-03-18 13:30:00,
2013-03-18 07:40:00,39.9,12.4,29.93,SSW,200,1.0,1.0,32,0.00,,,0.00,Wunderground v.1.15,2013-03-18 13:40:00,
2013-03-18 07:50:00,40.7,11.6,29.94,SSW,200,0.0,2.0,30,0.00,,,0.00,Wunderground v.1.15,2013-03-18 13:50:00,
2013-03-18 08:00:00,41.7,11.7,29.93,SSW,200,0.0,2.0,29,0.00,,,0.00,Wunderground v.1.15,2013-03-18 14:00:00,
2013-03-18 08:10:00,43.1,11.3,29.93,SSW,200,0.0,2.0,27,0.00,,,0.00,Wunderground v.1.15,2013-03-18 14:10:00,
2013-03-18 08:20:00,44.6,10.9,29.94,SSW,200,0.0,2.0,25,0.00,,,0.00,Wunderground v.1.15,2013-03-18 14:20:00,
2013-03-18 08:30:00,46.4,10.5,29.94,SSW,200,0.0,2.0,23,0.00,,,0.00,Wunderground v.1.15,2013-03-18 14:30:00,
2013-03-18 08:40:00,48.5,10.3,29.95,SSW,200,0.0,2.0,21,0.00,,,0.00,Wunderground v.1.15,2013-03-18 14:40:00,
2013-03-18 08:50:00,50.3,9.5,29.95,SSW,200,0.0,2.0,19,0.00,,,0.00,Wunderground v.1.15,2013-03-18 14:50:00,
2013-03-18 09:00:00,50.5,7.2,29.96,SSW,200,0.0,2.0,17,0.00,,,0.00,Wunderground v.1.15,2013-03-18 15:00:00,
2013-03-18 09:10:00,51.6,6.8,29.96,SSW,200,1.0,2.0,16,0.00,,,0.00,Wunderground v.1.15,2013-03-18 15:10:00,
2013-03-18 09:20:00,52.1,7.2,29.96,SSW,200,1.0,1.0,16,0.00,,,0.00,Wunderground v.1.15,2013-03-18 15:20:00,
2013-03-18 09:30:00,52.0,7.1,29.96,SSW,200,1.0,2.0,16,0.00,,,0.00,Wunderground v.1.15,2013-03-18 15:30:00,
2013-03-18 09:40:00,51.9,8.4,29.96,SSE,163,2.0,2.0,17,0.00,,,0.00,Wunderground v.1.15,2013-03-18 15:40:00,
2013-03-18 09:50:00,52.3,7.4,29.96,SSE,162,2.0,2.0,16,0.00,,,0.00,Wunderground v.1.15,2013-03-18 15:50:00,
2013-03-18 10:00:00,52.7,7.7,29.95,SSE,168,3.0,4.0,16,0.00,,,0.00,Wunderground v.1.15,2013-03-18 16:00:00,
2013-03-18 10:10:00,52.6,7.6,29.95,South,171,3.0,3.0,16,0.00,,,0.00,Wunderground v.1.15,2013-03-18 16:10:00,
2013-03-18 10:20:00,53.7,8.5,29.95,SSE,167,2.0,2.0,16,0.00,,,0.00,Wunderground v.1.15,2013-03-18 16:20:00,
2013-03-18 10:30:00,54.0,8.7,29.95,SSE,167,2.0,3.0,16,0.00,,,0.00,Wunderground v.1.15,2013-03-18 16:30:00,
2013-03-18 10:40:00,54.4,9.1,29.95,South,170,3.0,3.0,16,0.00,,,0.00,Wunderground v.1.15,2013-03-18 16:40:00,
2013-03-18 10:50:00,55.2,8.3,29.95,SW,218,2.0,2.0,15,0.00,,,0.00,Wunderground v.1.15,2013-03-18 16:50:00,
2013-03-18 11:00:00,55.1,8.2,29.95,SSW,206,3.0,3.0,15,0.00,,,0.00,Wunderground v.1.15,2013-03-18 17:00:00,
2013-03-18 11:10:00,56.2,9.1,29.95,SW,214,1.0,5.0,15,0.00,,,0.00,Wunderground v.1.15,2013-03-18 17:10:00,
2013-03-18 11:20:00,56.5,9.3,29.95,SW,219,2.0,2.0,15,0.00,,,0.00,Wunderground v.1.15,2013-03-18 17:20:00,
2013-03-18 11:30:00,57.0,8.2,29.95,SW,220,2.0,2.0,14,0.00,,,0.00,Wunderground v.1.15,2013-03-18 17:30:00,
2013-03-18 11:40:00,57.7,8.7,29.95,SW,220,3.0,3.0,14,0.00,,,0.00,Wunderground v.1.15,2013-03-18 17:40:00,
2013-03-18 11:50:00,58.8,8.0,29.95,WSW,252,2.0,2.0,13,0.00,,,0.00,Wunderground v.1.15,2013-03-18 17:50:00,
2013-03-18 12:00:00,59.8,8.8,29.94,WNW,286,2.0,2.0,13,0.00,,,0.00,Wunderground v.1.15,2013-03-18 18:00:00,
2013-03-18 12:10:00,60.6,7.6,29.94,West,280,1.0,2.0,12,0.00,,,0.00,Wunderground v.1.15,2013-03-18 18:10:00,
2013-03-18 12:20:00,61.9,6.7,29.93,NW,319,2.0,2.0,11,0.00,,,0.00,Wunderground v.1.15,2013-03-18 18:20:00,
2013-03-18 12:30:00,61.7,6.6,29.93,West,273,2.0,2.0,11,0.00,,,0.00,Wunderground v.1.15,2013-03-18 18:30:00,
2013-03-18 12:40:00,62.8,7.4,29.93,North,5,1.0,7.0,11,0.00,,,0.00,Wunderground v.1.15,2013-03-18 18:40:00,
2013-03-18 12:50:00,62.2,8.9,29.92,NNE,14,2.0,3.0,12,0.00,,,0.00,Wunderground v.1.15,2013-03-18 18:50:00,
2013-03-18 13:00:00,63.4,7.9,29.91,NNE,24,2.0,2.0,11,0.00,,,0.00,Wunderground v.1.15,2013-03-18 19:00:00,
2013-03-18 13:10:00,64.0,6.2,29.91,NNW,346,2.0,5.0,10,0.00,,,0.00,Wunderground v.1.15,2013-03-18 19:10:00,
2013-03-18 13:20:00,64.3,6.5,29.90,West,270,3.0,3.0,10,0.00,,,0.00,Wunderground v.1.15,2013-03-18 19:20:00,
2013-03-18 13:30:00,64.4,6.6,29.89,NNE,16,4.0,4.0,10,0.00,,,0.00,Wunderground v.1.15,2013-03-18 19:30:00,
2013-03-18 13:40:00,64.8,6.9,29.88,North,360,4.0,8.0,10,0.00,,,0.00,Wunderground v.1.15,2013-03-18 19:40:00,
2013-03-18 13:50:00,66.1,3.0,29.88,NW,304,7.0,9.0,8,0.00,,,0.00,Wunderground v.1.15,2013-03-18 19:50:00,
2013-03-18 14:00:00,65.6,2.6,29.87,NW,324,9.0,9.0,8,0.00,,,0.00,Wunderground v.1.15,2013-03-18 20:00:00,
2013-03-18 14:10:00,65.8,2.7,29.86,NNW,329,7.0,7.0,8,0.00,,,0.00,Wunderground v.1.15,2013-03-18 20:10:00,
2013-03-18 14:20:00,66.7,3.4,29.85,NNW,333,6.0,6.0,8,0.00,,,0.00,Wunderground v.1.15,2013-03-18 20:20:00,
2013-03-18 14:30:00,66.9,3.6,29.85,NNW,329,8.0,8.0,8,0.00,,,0.00,Wunderground v.1.15,2013-03-18 20:30:00,
2013-03-18 14:40:00,66.9,3.6,29.85,WNW,303,10.0,10.0,8,0.00,,,0.00,Wunderground v.1.15,2013-03-18 20:40:00,
2013-03-18 14:50:00,67.0,3.6,29.85,NNW,335,10.0,16.0,8,0.00,,,0.00,Wunderground v.1.15,2013-03-18 20:50:00,
2013-03-18 15:00:00,66.7,3.4,29.85,NW,311,10.0,10.0,8,0.00,,,0.00,Wunderground v.1.15,2013-03-18 21:00:00,
2013-03-18 15:10:00,66.8,3.5,29.84,NNW,336,8.0,9.0,8,0.00,,,0.00,Wunderground v.1.15,2013-03-18 21:10:00,
2013-03-18 15:20:00,67.0,3.6,29.85,NW,321,8.0,8.0,8,0.00,,,0.00,Wunderground v.1.15,2013-03-18 21:20:00,
2013-03-18 15:30:00,67.6,4.1,29.84,NNW,337,7.0,8.0,8,0.00,,,0.00,Wunderground v.1.15,2013-03-18 21:30:00,
2013-03-18 15:40:00,68.0,1.5,29.84,NW,309,7.0,7.0,7,0.00,,,0.00,Wunderground v.1.15,2013-03-18 21:40:00,
2013-03-18 15:50:00,67.7,1.3,29.83,NW,320,7.0,7.0,7,0.00,,,0.00,Wunderground v.1.15,2013-03-18 21:50:00,
2013-03-18 16:00:00,68.2,1.7,29.83,NW,309,8.0,15.0,7,0.00,,,0.00,Wunderground v.1.15,2013-03-18 22:00:00,
2013-03-18 16:10:00,67.8,1.4,29.82,North,5,8.0,9.0,7,0.00,,,0.00,Wunderground v.1.15,2013-03-18 22:10:00,
2013-03-18 16:20:00,68.5,1.9,29.83,West,263,7.0,11.0,7,0.00,,,0.00,Wunderground v.1.15,2013-03-18 22:20:00,
2013-03-18 16:30:00,67.5,4.0,29.83,North,355,8.0,11.0,8,0.00,,,0.00,Wunderground v.1.15,2013-03-18 22:30:00,
2013-03-18 16:40:00,67.5,4.0,29.83,NW,313,9.0,9.0,8,0.00,,,0.00,Wunderground v.1.15,2013-03-18 22:40:00,
2013-03-18 16:50:00,67.0,3.6,29.84,NW,305,10.0,10.0,8,0.00,,,0.00,Wunderground v.1.15,2013-03-18 22:50:00,
2013-03-18 17:00:00,67.1,3.7,29.84,North,355,7.0,7.0,8,0.00,,,0.00,Wunderground v.1.15,2013-03-18 23:00:00,
2013-03-18 17:10:00,66.4,5.8,29.84,NNW,329,9.0,9.0,9,0.00,,,0.00,Wunderground v.1.15,2013-03-18 23:10:00,
2013-03-18 17:20:00,66.1,3.0,29.85,NW,304,10.0,11.0,8,0.00,,,0.00,Wunderground v.1.15,2013-03-18 23:20:00,
2013-03-18 17:30:00,66.5,3.3,29.85,NNW,329,8.0,9.0,8,0.00,,,0.00,Wunderground v.1.15,2013-03-18 23:30:00,
2013-03-18 17:40:00,66.1,5.5,29.85,NW,311,10.0,10.0,9,0.00,,,0.00,Wunderground v.1.15,2013-03-18 23:40:00,
2013-03-18 17:50:00,65.5,5.1,29.86,WNW,303,10.0,13.0,9,0.00,,,0.00,Wunderground v.1.15,2013-03-18 23:50:00,
2013-03-18 18:00:00,65.4,5.0,29.86,WNW,292,8.0,9.0,9,0.00,,,0.00,Wunderground v.1.15,2013-03-19 00:00:00,
2013-03-18 18:10:00,64.9,4.6,29.86,NNW,334,9.0,14.0,9,0.00,,,0.00,Wunderground v.1.15,2013-03-19 00:10:00,
2013-03-18 18:20:00,64.4,4.2,29.86,WNW,303,10.0,10.0,9,0.00,,,0.00,Wunderground v.1.15,2013-03-19 00:20:00,
2013-03-18 18:30:00,64.1,6.3,29.87,North,350,9.0,9.0,10,0.00,,,0.00,Wunderground v.1.15,2013-03-19 00:30:00,
2013-03-18 18:40:00,63.8,6.1,29.88,NW,324,9.0,11.0,10,0.00,,,0.00,Wunderground v.1.15,2013-03-19 00:40:00,
2013-03-18 18:50:00,63.5,5.9,29.88,NNW,327,7.0,11.0,10,0.00,,,0.00,Wunderground v.1.15,2013-03-19 00:50:00,
2013-03-18 19:00:00,62.8,5.3,29.88,NW,325,9.0,9.0,10,0.00,,,0.00,Wunderground v.1.15,2013-03-19 01:00:00,
2013-03-18 19:10:00,62.3,4.9,29.88,WNW,302,8.0,12.0,10,0.00,,,0.00,Wunderground v.1.15,2013-03-19 01:10:00,
2013-03-18 19:20:00,61.8,6.6,29.88,NW,323,6.0,6.0,11,0.00,,,0.00,Wunderground v.1.15,2013-03-19 01:20:00,
2013-03-18 19:30:00,61.4,6.3,29.89,NNW,327,4.0,4.0,11,0.00,,,0.00,Wunderground v.1.15,2013-03-19 01:30:00,
2013-03-18 19:40:00,61.0,6.0,29.89,NW,311,4.0,4.0,11,0.00,,,0.00,Wunderground v.1.15,2013-03-19 01:40:00,
2013-03-18 19:50:00,60.6,5.7,29.90,NNW,331,5.0,5.0,11,0.00,,,0.00,Wunderground v.1.15,2013-03-19 01:50:00,
2013-03-18 20:00:00,60.3,5.5,29.90,NW,316,4.0,4.0,11,0.00,,,0.00,Wunderground v.1.15,2013-03-19 02:00:00,
2013-03-18 20:10:00,60.0,7.2,29.91,NW,320,2.0,3.0,12,0.00,,,0.00,Wunderground v.1.15,2013-03-19 02:10:00,
2013-03-18 20:20:00,59.5,4.8,29.91,NNW,347,3.0,4.0,11,0.00,,,0.00,Wunderground v.1.15,2013-03-19 02:20:00,
2013-03-18 20:30:00,59.3,6.6,29.91,NW,316,4.0,4.0,12,0.00,,,0.00,Wunderground v.1.15,2013-03-19 02:30:00,
2013-03-18 20:40:00,59.0,6.4,29.92,NW,317,2.0,2.0,12,0.00,,,0.00,Wunderground v.1.15,2013-03-19 02:40:00,
2013-03-18 20:50:00,58.5,6.0,29.92,NW,317,2.0,2.0,12,0.00,,,0.00,Wunderground v.1.15,2013-03-19 02:50:00,
2013-03-18 21:00:00,57.9,5.5,29.92,NW,315,1.0,2.0,12,0.00,,,0.00,Wunderground v.1.15,2013-03-19 03:00:00,
2013-03-18 21:10:00,57.4,6.9,29.93,NW,315,0.0,2.0,13,0.00,,,0.00,Wunderground v.1.15,2013-03-19 03:10:00,
2013-03-18 21:20:00,56.8,6.4,29.93,NW,315,0.0,2.0,13,0.00,,,0.00,Wunderground v.1.15,2013-03-19 03:20:00,
2013-03-18 21:30:00,56.0,5.8,29.93,NW,315,0.0,2.0,13,0.00,,,0.00,Wunderground v.1.15,2013-03-19 03:30:00,
2013-03-18 21:40:00,55.7,5.5,29.93,NW,315,0.0,2.0,13,0.00,,,0.00,Wunderground v.1.15,2013-03-19 03:40:00,
2013-03-18 21:50:00,54.8,6.4,29.94,NW,315,0.0,2.0,14,0.00,,,0.00,Wunderground v.1.15,2013-03-19 03:50:00,
2013-03-18 22:00:00,54.8,6.4,29.95,NW,315,1.0,1.0,14,0.00,,,0.00,Wunderground v.1.15,2013-03-19 04:00:00,
2013-03-18 22:10:00,54.1,7.4,29.95,NW,315,0.0,2.0,15,0.00,,,0.00,Wunderground v.1.15,2013-03-19 04:10:00,
2013-03-18 22:20:00,53.0,7.9,29.95,NW,315,0.0,2.0,16,0.00,,,0.00,Wunderground v.1.15,2013-03-19 04:20:00,
2013-03-18 22:30:00,51.9,8.4,29.95,NW,315,0.0,2.0,17,0.00,,,0.00,Wunderground v.1.15,2013-03-19 04:30:00,
2013-03-18 22:40:00,51.0,8.9,29.96,NW,315,0.0,2.0,18,0.00,,,0.00,Wunderground v.1.15,2013-03-19 04:40:00,
2013-03-18 22:50:00,50.0,9.3,29.96,NW,316,0.0,2.0,19,0.00,,,0.00,Wunderground v.1.15,2013-03-19 04:50:00,
2013-03-18 23:00:00,49.1,8.5,29.96,NW,315,0.0,2.0,19,0.00,,,0.00,Wunderground v.1.15,2013-03-19 05:00:00,
2013-03-18 23:10:00,49.6,7.8,29.95,NW,315,1.0,1.0,18,0.00,,,0.00,Wunderground v.1.15,2013-03-19 05:10:00,
2013-03-18 23:20:00,51.3,6.5,29.95,NW,315,1.0,2.0,16,0.00,,,0.00,Wunderground v.1.15,2013-03-19 05:20:00,
2013-03-18 23:30:00,52.2,7.3,29.95,NW,315,1.0,2.0,16,0.00,,,0.00,Wunderground v.1.15,2013-03-19 05:30:00,
2013-03-18 23:40:00,51.9,5.6,29.95,NW,315,0.0,2.0,15,0.00,,,0.00,Wunderground v.1.15,2013-03-19 05:40:00,
2013-03-18 23:50:00,51.2,6.5,29.96,NW,315,0.0,2.0,16,0.00,,,0.00,Wunderground v.1.15,2013-03-19 05:50:00,